Orbital Elements at Epoch 2457268.5 (2015-Sep-03.0) TDB
Reference: JPL 2 (heliocentric ecliptic J2000)
Element | Value | Uncertainty (1-sigma) | Units |
e | .2643412469047431 | 0.012694 | |
a | 51.61932210734943 | 0.29355 | au |
q | 37.97420613711512 | 0.45617 | au |
i | 27.11061674927581 | 0.031485 | deg |
node | 174.1036564002188 | 0.073365 | deg |
peri | 221.6340012100362 | 28.369 | deg |
M | 188.1948133876636 | 47.19 | deg |
tp | 2521915.837319939310 (2192-Sep-01.33731994) | 17220 | TDB |
period | 135461.8093555683 370.87 | 1155.5 3.164 | d yr |
n | .002657575605350512 | 2.267e-05 | deg/d |
Q | 65.26443807758375 | 0.37115 | au |
|
| | Orbit Determination Parameters
Additional Information
|